Wind_Speed
10 10 10 9 9 8 8 8 8 7 6 6 5 5 4 4 4 4 3 3 3 3 3 3 4 5 5 5 6 6 6 7 7 7 7 6 6 6 6 6 6 6 7
10 11 10 9 9 8 8 8 8 7 6 6 5 5 5 5 5 4 4 4 4 3 3 4 5 5 5 5 6 6 6 7 7 7 7 7 7 6 6 6 6 7 7
10 11 10 10 9 8 8 8 8 7 7 6 6 6 5 5 5 5 4 4 4 4 4 4 4 5 5 5 6 6 7 7 7 7 7 7 7 7 7 7 7 7 7
10 10 10 10 9 9 8 7 7 7 7 7 7 6 6 6 5 5 5 5 5 5 5 5 5 5 5 5 6 6 7 7 7 7 7 7 7 7 7 7 7 8 8
11 11 11 10 10 10 9 8 8 7 7 8 8 7 7 7 6 6 6 6 6 6 6 6 5 5 5 5 6 6 7 7 7 7 7 8 8 8 8 8 8 9 9
11 11 11 10 10 11 10 9 8 8 8 8 8 8 7 7 7 7 7 7 7 7 7 6 6 5 5 6 6 7 7 7 7 7 8 8 8 8 9 9 9 9 10
11 11 11 11 11 11 10 10 9 9 8 9 9 9 8 8 8 8 7 7 7 7 7 7 6 6 6 6 7 7 7 7 7 8 8 8 9 9 10 10 10 10 10
11 12 12 12 12 12 11 10 9 9 8 8 9 9 9 9 8 8 8 8 8 8 8 7 7 7 7 8 8 8 8 7 8 8 9 9 9 10 11 11 12 12 12
13 13 12 13 12 12 12 12 11 9 9 9 9 10 9 9 9 9 9 9 9 9 9 9 9 8 8 8 8 8 8 8 8 9 9 9 10 11 12 13 13 13 13
13 13 13 13 13 13 13 12 11 10 10 10 10 10 9 9 10 10 9 9 9 10 10 10 10 10 9 9 8 8 9 9 9 9 10 10 11 12 12 13 14 14 15
13 13 13 13 13 13 12 12 12 12 11 11 11 11 10 10 11 11 10 10 11 11 11 11 11 11 10 10 10 10 10 10 10 10 11 12 13 13 14 14 15 16 16
13 13 13 13 13 13 13 13 13 12 12 12 12 12 12 12 11 11 11 11 12 12 11 12 12 12 11 11 11 11 11 12 12 12 12 13 14 15 15 16 17 17 18
13 13 13 13 13 13 13 13 13 13 13 13 13 12 12 12 12 12 12 12 12 13 13 13 13 13 13 13 13 13 13 13 13 14 14 14 15 16 17 18 18 19 20
12 13 12 12 13 13 13 13 13 13 13 13 13 12 12 12 12 12 13 13 14 14 14 14 15 15 15 15 14 14 14 14 15 15 16 16 16 17 18 19 20 20 21
12 12 12 12 13 13 13 13 12 12 13 13 13 12 13 13 13 13 14 15 15 15 15 15 16 16 15 15 14 14 15 15 16 17 17 17 18 19 19 20 21 22 23
12 12 12 13 13 14 14 14 14 13 13 13 13 13 13 14 14 14 15 16 16 16 15 16 15 15 15 15 15 15 16 17 18 18 19 19 19 21 22 23 24 24 25
12 12 13 13 14 14 15 15 15 14 14 14 13 14 14 15 15 15 15 15 16 16 15 15 14 14 15 15 16 17 18 18 19 20 20 21 21 22 24 24 25 26 27
12 13 13 14 14 14 14 15 15 15 14 14 14 14 15 15 15 15 15 15 15 15 14 14 14 15 15 16 17 17 18 19 20 21 22 23 23 24 25 26 27 28 29
14 14 13 13 14 14 15 15 15 15 15 15 14 15 15 16 16 16 16 16 16 16 15 15 16 16 17 18 18 19 20 21 21 22 23 24 25 27 28 29 30 30 32
15 15 14 14 14 15 15 15 15 14 15 15 15 16 16 16 17 17 17 17 16 16 17 17 18 18 18 18 19 20 21 22 23 24 25 26 27 29 30 31 32 32 34
15 15 15 15 15 16 16 15 15 15 15 16 16 16 17 17 17 18 18 18 18 18 18 19 19 20 20 19 20 21 22 23 25 26 27 28 29 31 32 33 34 35 36
16 16 16 16 16 17 17 17 16 16 16 16 16 17 17 17 17 18 19 19 19 19 19 20 20 20 20 20 21 22 23 25 26 27 29 30 31 33 34 35 36 37 37
17 17 17 17 17 17 17 18 18 17 17 17 17 17 17 17 17 18 19 20 20 20 20 21 21 21 21 22 23 24 25 26 28 29 31 32 33 34 36 37 37 38 39
17 17 18 17 17 17 17 18 18 17 18 18 18 17 17 17 17 19 19 19 20 20 20 21 21 21 22 23 24 26 27 29 30 32 33 34 35 36 37 38 39 40 41
18 18 17 17 17 17 17 17 17 17 18 18 18 18 18 18 18 19 20 20 21 21 21 22 22 23 24 26 27 29 30 31 32 34 35 36 37 38 39 40 41 42 43
18 18 18 18 18 18 17 17 18 18 19 19 19 19 19 19 19 20 20 21 22 22 22 24 25 26 27 28 30 31 32 33 34 35 36 37 38 39 40 41 42 43 44
Wind_Direction
223 218 219 219 223 230 232 229 228 226 227 237 245 246 253 254 258 266 277 289 300 311 325 333 342 347 349 349 352 353 354 352 353 356 357 352 345 341 341 338 336 331 328
220 218 219 222 225 231 232 227 228 228 233 242 246 248 253 255 252 255 269 280 292 302 312 322 332 337 340 346 350 350 348 347 348 350 353 352 349 346 345 342 336 334 332
223 215 217 220 225 224 225 226 228 230 236 242 243 248 251 256 254 253 262 272 282 291 300 313 322 326 331 337 341 341 341 342 344 346 350 352 351 346 344 340 337 335 334
223 219 219 222 225 223 222 226 230 233 240 245 247 247 251 254 256 252 258 267 276 285 293 302 311 315 321 326 332 336 335 335 339 342 344 345 344 343 341 339 336 332 332
222 220 219 221 226 227 224 229 233 237 244 249 249 247 252 253 253 252 256 264 273 279 286 294 301 308 317 325 327 330 331 330 331 334 338 337 337 336 336 337 335 330 330
224 224 226 228 231 230 228 232 238 243 247 249 249 248 252 255 252 252 256 263 270 276 282 288 295 301 310 317 320 323 325 327 327 329 331 330 329 333 332 332 332 331 330
230 229 230 231 231 232 233 235 241 246 251 251 248 249 253 255 256 254 256 263 270 275 280 284 292 295 301 307 311 316 317 321 323 325 328 327 327 327 327 327 328 328 327
239 233 232 234 233 235 238 239 241 246 251 251 251 254 255 255 255 256 257 265 270 272 275 280 287 292 299 303 305 307 308 310 314 320 325 327 322 321 322 321 322 322 322
239 235 233 234 234 236 240 242 245 248 253 253 255 257 256 255 255 257 257 264 268 271 276 280 285 291 298 301 302 302 303 304 307 312 316 320 322 319 319 319 318 320 320
237 236 235 236 235 237 239 241 243 247 253 254 255 254 255 257 258 259 261 264 266 271 275 280 282 287 291 293 296 299 300 299 301 307 311 315 316 318 318 319 321 321 320
241 239 237 238 238 237 237 238 243 250 254 256 254 252 254 257 261 260 264 266 268 271 277 279 279 282 285 286 289 292 294 296 298 302 305 307 309 311 312 314 316 317 317
240 240 240 240 238 239 239 241 244 249 253 256 256 254 255 260 259 258 264 268 271 271 276 280 279 280 282 283 286 289 291 294 297 299 301 303 305 306 308 309 311 313 312
242 243 241 240 238 237 240 243 247 251 252 256 257 255 257 258 258 257 263 270 274 273 273 276 278 279 279 280 283 286 289 292 296 298 299 301 303 305 306 308 309 310 310
243 241 240 240 238 239 242 245 250 250 250 255 254 256 257 257 259 263 266 270 274 276 275 275 276 277 277 279 280 284 288 292 295 298 299 300 302 305 306 308 308 308 308
245 244 240 239 240 240 242 247 251 253 252 253 255 256 256 258 261 265 268 270 274 276 277 277 278 278 277 277 279 284 288 291 295 297 299 301 302 304 306 307 308 308 307
250 248 245 244 242 242 244 248 251 252 254 255 257 256 258 260 263 267 271 272 274 276 277 279 279 277 276 278 280 285 289 292 294 297 298 299 302 304 305 306 307 307 307
255 254 251 250 248 247 246 249 251 254 255 256 258 258 260 264 265 270 273 275 276 280 282 280 277 277 278 278 281 285 289 293 295 297 298 299 301 304 305 306 307 308 307
253 254 253 253 253 251 251 252 255 256 256 258 258 260 263 265 268 270 273 277 281 283 284 282 279 278 279 281 284 287 291 294 296 297 298 300 302 304 305 306 306 307 307
252 252 254 257 256 254 254 257 258 257 258 259 259 262 264 266 269 272 273 277 281 283 282 281 280 280 282 283 286 290 292 295 297 298 299 300 303 304 304 305 306 307 307
257 256 257 258 257 256 256 258 259 260 259 260 261 264 266 267 271 271 272 275 279 282 284 283 282 285 287 287 289 290 292 294 296 297 298 300 303 304 304 306 307 307 307
259 260 260 261 258 256 257 259 258 258 259 261 265 268 270 271 270 271 271 273 277 281 283 284 285 286 287 290 291 292 294 296 297 299 300 302 303 305 305 306 307 307 306
259 259 260 260 258 256 256 258 258 259 261 264 267 269 269 270 271 272 273 275 278 281 284 286 287 287 288 291 293 295 297 299 299 300 301 302 304 305 306 307 307 307 307
259 259 259 260 258 256 256 257 258 259 261 265 268 268 268 269 271 273 277 279 280 282 284 285 287 288 290 292 294 295 298 300 301 301 301 302 304 305 306 306 307 307 307
260 259 258 259 258 256 256 258 261 262 262 264 265 269 273 270 270 274 277 279 281 283 285 287 288 289 291 292 294 296 298 300 301 302 303 304 305 305 306 306 307 307 307
258 258 258 257 257 258 258 259 261 262 263 265 266 268 271 270 271 273 276 279 282 284 286 287 289 290 291 292 294 296 298 300 302 304 304 305 305 306 306 306 307 307 307
256 257 257 257 257 258 259 260 262 263 263 265 267 270 272 271 272 274 278 282 283 285 287 289 290 291 293 294 296 298 299 301 302 304 305 305 305 305 306 306 307 307 308
Height
5864 5866 5868 5870 5872 5874 5875 5876 5877 5879 5880 5881 5882 5882 5883 5883 5884 5884 5885 5885 5885 5884 5884 5884 5883 5883 5882 5881 5880 5880 5879 5878 5877 5876 5875 5874 5873 5872 5872 5871 5871 5870 5869
5863 5865 5867 5869 5871 5872 5873 5875 5876 5877 5878 5880 5881 5881 5882 5882 5883 5884 5884 5884 5884 5884 5884 5883 5883 5882 5882 5881 5880 5880 5879 5878 5877 5876 5875 5874 5874 5872 5871 5871 5870 5869 5869
5862 5864 5866 5868 5870 5871 5872 5874 5875 5876 5877 5878 5880 5880 5881 5881 5882 5883 5883 5883 5883 5883 5883 5883 5882 5882 5881 5881 5880 5879 5878 5877 5877 5876 5875 5874 5873 5872 5871 5870 5869 5869 5868
5861 5863 5865 5867 5868 5870 5871 5873 5874 5875 5876 5877 5878 5879 5880 5880 5881 5882 5882 5882 5882 5882 5882 5882 5882 5882 5881 5880 5880 5879 5878 5877 5876 5875 5874 5874 5873 5872 5871 5870 5869 5868 5868
5859 5861 5863 5865 5867 5868 5870 5871 5873 5874 5875 5875 5876 5877 5878 5879 5880 5880 5881 5881 5881 5881 5881 5881 5881 5881 5880 5880 5879 5878 5877 5876 5876 5875 5874 5873 5872 5871 5871 5870 5869 5868 5867
5858 5860 5861 5863 5865 5867 5868 5870 5871 5872 5873 5874 5875 5876 5876 5877 5878 5878 5879 5880 5880 5880 5880 5880 5880 5880 5879 5879 5878 5877 5877 5876 5875 5874 5873 5872 5872 5871 5870 5869 5868 5867 5866
5856 5858 5859 5861 5863 5865 5866 5867 5869 5870 5871 5872 5873 5874 5875 5875 5876 5877 5877 5878 5878 5879 5879 5879 5879 5878 5878 5877 5877 5876 5876 5875 5874 5874 5873 5872 5871 5870 5869 5868 5867 5866 5865
5853 5855 5857 5859 5861 5863 5864 5865 5867 5868 5869 5869 5871 5872 5872 5873 5874 5875 5875 5876 5876 5877 5877 5877 5877 5877 5876 5876 5876 5875 5874 5874 5873 5873 5872 5871 5870 5869 5868 5867 5866 5865 5864
5851 5853 5855 5857 5858 5860 5862 5863 5864 5865 5866 5867 5868 5869 5870 5871 5872 5873 5873 5874 5874 5875 5875 5875 5875 5875 5874 5874 5874 5873 5873 5872 5872 5871 5870 5869 5868 5867 5866 5865 5864 5863 5862
5849 5851 5852 5854 5856 5857 5859 5861 5862 5863 5864 5865 5866 5867 5868 5869 5870 5870 5871 5872 5872 5872 5872 5873 5873 5872 5872 5872 5872 5871 5871 5870 5870 5869 5868 5867 5866 5865 5864 5863 5861 5860 5859
5847 5848 5850 5851 5853 5855 5856 5858 5859 5861 5862 5863 5864 5864 5865 5866 5867 5868 5868 5869 5869 5870 5870 5870 5870 5870 5870 5870 5869 5869 5869 5868 5867 5867 5866 5865 5864 5863 5861 5860 5859 5857 5856
5844 5846 5847 5849 5850 5852 5853 5855 5856 5858 5859 5860 5861 5862 5863 5863 5864 5865 5866 5866 5866 5867 5867 5867 5867 5867 5867 5867 5867 5866 5866 5865 5865 5864 5863 5862 5861 5860 5859 5857 5855 5854 5852
5841 5843 5844 5846 5847 5849 5850 5852 5853 5855 5856 5857 5858 5858 5859 5861 5862 5862 5863 5863 5863 5863 5864 5864 5864 5863 5863 5863 5863 5863 5863 5862 5862 5861 5860 5859 5858 5856 5855 5853 5852 5850 5848
5839 5840 5841 5843 5844 5846 5847 5849 5850 5851 5852 5854 5854 5855 5856 5857 5858 5859 5859 5860 5860 5860 5860 5860 5860 5860 5860 5860 5859 5859 5859 5859 5858 5857 5856 5855 5854 5852 5851 5849 5847 5845 5843
5836 5837 5839 5840 5841 5843 5844 5846 5847 5848 5849 5850 5851 5852 5853 5854 5855 5855 5856 5856 5856 5856 5856 5855 5855 5855 5855 5855 5855 5856 5855 5855 5854 5853 5852 5851 5850 5848 5846 5844 5842 5840 5837
5833 5834 5836 5837 5838 5840 5841 5843 5844 5845 5846 5847 5848 5849 5850 5850 5851 5852 5852 5852 5852 5851 5851 5851 5850 5850 5851 5851 5851 5851 5851 5851 5850 5849 5848 5846 5845 5843 5841 5838 5836 5834 5831
5831 5832 5833 5834 5835 5837 5838 5839 5841 5842 5843 5843 5844 5845 5846 5847 5847 5848 5848 5848 5848 5847 5846 5846 5846 5846 5846 5847 5847 5847 5846 5846 5845 5844 5843 5841 5839 5837 5835 5833 5830 5827 5824
5828 5829 5830 5831 5832 5833 5834 5836 5837 5838 5839 5840 5841 5842 5842 5843 5843 5844 5844 5844 5844 5843 5842 5842 5842 5842 5842 5842 5842 5842 5841 5841 5840 5838 5837 5835 5833 5831 5829 5826 5823 5820 5816
5825 5826 5827 5828 5828 5830 5831 5832 5833 5834 5835 5836 5837 5838 5838 5839 5839 5840 5840 5840 5840 5839 5839 5838 5838 5838 5838 5837 5837 5837 5836 5835 5834 5832 5831 5829 5827 5824 5822 5819 5816 5812 5808
5821 5822 5823 5824 5825 5826 5827 5828 5829 5830 5831 5832 5833 5834 5834 5835 5835 5835 5835 5835 5835 5835 5835 5834 5834 5834 5833 5832 5832 5831 5830 5829 5828 5826 5824 5822 5819 5816 5813 5811 5807 5804 5800
5818 5819 5820 5820 5821 5822 5823 5824 5825 5826 5827 5828 5828 5829 5830 5830 5830 5830 5831 5831 5830 5830 5830 5830 5829 5829 5828 5827 5826 5825 5824 5822 5821 5819 5817 5814 5811 5808 5805 5802 5798 5794 5790
5814 5815 5815 5816 5817 5818 5819 5820 5821 5822 5823 5824 5824 5824 5825 5825 5825 5826 5826 5826 5826 5825 5825 5824 5824 5823 5822 5821 5820 5819 5817 5816 5814 5812 5809 5806 5803 5800 5796 5792 5788 5784 5780
5809 5810 5811 5812 5813 5813 5814 5816 5817 5817 5818 5819 5819 5820 5820 5820 5821 5821 5821 5821 5821 5820 5820 5819 5819 5818 5817 5815 5814 5813 5811 5809 5807 5804 5801 5798 5794 5791 5787 5783 5778 5774 5770
5805 5805 5806 5807 5808 5809 5810 5811 5812 5813 5813 5814 5814 5815 5815 5815 5816 5816 5816 5816 5816 5815 5814 5814 5813 5812 5811 5809 5808 5806 5804 5801 5799 5796 5792 5789 5785 5781 5777 5773 5768 5763 5759
5799 5800 5801 5802 5803 5804 5805 5806 5807 5807 5808 5809 5809 5810 5810 5810 5811 5811 5811 5810 5810 5809 5809 5808 5807 5806 5804 5803 5801 5798 5796 5793 5790 5787 5783 5780 5776 5772 5767 5762 5758 5753 5747
5794 5795 5796 5797 5798 5799 5800 5801 5802 5802 5803 5803 5804 5804 5805 5805 5805 5805 5805 5804 5804 5803 5802 5801 5800 5799 5797 5795 5793 5790 5788 5785 5781 5778 5774 5770 5766 5761 5757 5752 5747 5741 5736